{"data":{"norad_id":61056,"intl_designator":"2024-164G","name":"STARLINK-11156 [DTC]","alt_names":[],"object_type":"PAYLOAD","status":"ACTIVE","operator":null,"country":"US","launch_date":"2024-09-13","launch_site_code":"AFWTR","launch_vehicle":null,"mission":null,"orbit_class":"UNKNOWN","rcs_meters":null,"size_class":null,"mass_kg":null,"dimensions":null,"purposes":["comms"],"wikipedia_slug":null,"has_3d_model":false,"image_url":null,"decayed_at":null,"tle_current":{"epoch":"2026-09-21T17:31:04.706112Z","epoch_age_seconds":85915,"freshness":"FRESH","line1":"1 61056U 24164G   26264.72991558  .00000346  00000+0  77139-5 0  9995","line2":"2 61056  53.1603  64.5352 0000924  60.7931 299.3179 15.69699790116216","mean_motion":15.6969979,"eccentricity":9.24e-5,"inclination_deg":53.1603,"raan_deg":64.5352,"arg_perigee_deg":60.7931,"mean_anomaly_deg":299.3179,"bstar":7.7139e-6,"rev_number":11621,"period_min":91.737286911404,"perigee_km":359.13338637975,"apogee_km":360.37854900018,"semimajor_km":6737.89296769,"source":"CELESTRAK","updated_at":"2026-09-22T09:00:49.331836Z"}}}